Pittsburgh Allegheny Co., PA

7:17 AM EDT on April 26, 2017 (GMT -0400)
Allegheny County

Weather History for KAGC - October, 2012

Change the Weather History Date:

Friday, October 12, 2012

  Actual Average Record
Temperature  
Mean Temperature 48 °F -  
Max Temperature 55 °F 60 °F 81 °F (2008)
Min Temperature 41 °F 41 °F 28 °F (1988)
Degree Days  
Heating Degree Days 16    
Moisture  
Dew Point 31 °F    
Average Humidity 55    
Maximum Humidity 71    
Minimum Humidity 34    
Precipitation  
Precipitation 0.00 in - - ()
Sea Level Pressure  
Sea Level Pressure 30.30 in    
Wind  
Wind Speed 7 mph (NNW)    
Max Wind Speed 13 mph    
Max Gust Speed 21 mph    
Visibility 10 miles    
Events      
Averages and records for this station are not official NWS values.
T = Trace of Precipitation, MM = Missing Value Source: NWS Daily Summary

Daily Weather History Graph

Daily Weather History Graph

Search for Another Location

Airport or City:

Trip Planner

Search our weather history database for the weather conditions in past years. The results will help you decide how hot, cold, wet, or windy it might be!

Date:

Astronomy

Oct. 12, 2012 Rise Set
Actual Time 7:27 AM EDT 6:43 PM EDT
Civil Twilight 7:00 AM EDT 7:10 PM EDT
Nautical Twilight 6:28 AM EDT 7:42 PM EDT
Astronomical Twilight 5:57 AM EDT 8:13 PM EDT
Moon 4:08 AM EDT (10/12) 4:52 PM EDT (10/12)
Length of Visible Light 12h 10m
Length of Day
11h 15m
Waning Crescent, 11% of the Moon is Illuminated
Oct 12
Waning Crescent
Oct 15
New
Oct 21
First Quarter
Oct 29
Full
Nov 6
Last Quarter

Hourly Weather History & Observations

Time (EDT) Temp. Windchill Dew Point Humidity Pressure Visibility Wind Dir Wind Speed Gust Speed Precip Events Conditions
12:53 AM 45.0 °F 41.8 °F 28.9 °F 53% 30.18 in 10.0 mi South 5.8 mph - N/A   Clear
1:53 AM 43.0 °F 40.3 °F 30.0 °F 60% 30.19 in 10.0 mi South 4.6 mph - N/A   Clear
2:53 AM 42.1 °F 38.4 °F 30.0 °F 62% 30.19 in 10.0 mi SSW 5.8 mph - N/A   Clear
3:53 AM 42.8 °F 39.3 °F 30.2 °F 61% 30.14 in 10.0 mi South 5.8 mph - N/A   Clear
4:53 AM 43.0 °F 38.2 °F 30.9 °F 62% 30.17 in 10.0 mi South 8.1 mph - N/A   Clear
5:53 AM 46.0 °F 42.5 °F 30.9 °F 56% 30.18 in 10.0 mi WSW 6.9 mph - N/A   Mostly Cloudy
6:53 AM 46.9 °F - 30.9 °F 54% 30.21 in 10.0 mi WNW 5.8 mph - N/A   Overcast
7:35 AM 46.4 °F 42.9 °F 32.0 °F 57% 30.21 in 10.0 mi NW 6.9 mph - N/A   Overcast
7:53 AM 46.9 °F - 34.0 °F 61% 30.25 in 10.0 mi NW 12.7 mph 20.7 mph N/A   Overcast
8:42 AM 46.4 °F 41.1 °F 35.6 °F 66% 30.25 in 10.0 mi NNW 11.5 mph 18.4 mph N/A   Overcast
8:53 AM 46.9 °F - 36.0 °F 66% 30.28 in 10.0 mi NNW 10.4 mph - N/A   Overcast
9:53 AM 46.0 °F 41.0 °F 36.0 °F 68% 30.32 in 10.0 mi NNW 10.4 mph - N/A   Overcast
10:08 AM 46.4 °F 41.9 °F 35.6 °F 66% 30.30 in 10.0 mi NNW 9.2 mph - N/A   Overcast
10:53 AM 45.0 °F 40.1 °F 36.0 °F 71% 30.35 in 10.0 mi NNW 9.2 mph - N/A   Overcast
11:15 AM 46.4 °F 42.4 °F 37.4 °F 71% 30.32 in 10.0 mi NNW 8.1 mph - N/A   Overcast
11:25 AM 46.4 °F 41.9 °F 35.6 °F 66% 30.33 in 10.0 mi NNW 9.2 mph - N/A   Overcast
11:37 AM 46.4 °F 43.5 °F 35.6 °F 66% 30.33 in 10.0 mi NNW 5.8 mph 16.1 mph N/A   Overcast
11:53 AM 51.8 °F - 37.4 °F 58% 30.33 in 10.0 mi Variable 6.9 mph - N/A   Overcast
12:25 PM 51.8 °F - 33.8 °F 50% 30.33 in 10.0 mi NW 10.4 mph 17.3 mph N/A   Scattered Clouds
12:53 PM 51.8 °F - 33.8 °F 50% 30.33 in 10.0 mi NW 8.1 mph - N/A   Mostly Cloudy
1:53 PM 53.1 °F - 28.9 °F 40% 30.35 in 10.0 mi NW 11.5 mph 17.3 mph N/A   Scattered Clouds
2:53 PM 55.0 °F - 27.0 °F 34% 30.35 in 10.0 mi North 6.9 mph 17.3 mph N/A   Scattered Clouds
3:53 PM 54.0 °F - 27.0 °F 35% 30.35 in 10.0 mi Variable 5.8 mph 17.3 mph N/A   Partly Cloudy
4:53 PM 53.1 °F - 26.1 °F 35% 30.36 in 10.0 mi NNW 8.1 mph - N/A   Clear
5:53 PM 51.8 °F - 26.6 °F 38% 30.34 in 10.0 mi NNW 6.9 mph - N/A   Clear
6:53 PM 48.0 °F - 27.0 °F 44% 30.38 in 10.0 mi North 3.5 mph - N/A   Clear
7:53 PM 45.0 °F 42.6 °F 26.1 °F 48% 30.40 in 10.0 mi North 4.6 mph - N/A   Clear
8:53 PM 44.1 °F 41.5 °F 26.1 °F 49% 30.42 in 10.0 mi NNW 4.6 mph - N/A   Clear
9:53 PM 43.0 °F 41.3 °F 26.1 °F 51% 30.43 in 10.0 mi NNE 3.5 mph - N/A   Clear
10:53 PM 42.1 °F 39.2 °F 26.1 °F 53% 30.44 in 10.0 mi NNE 4.6 mph - N/A   Clear
11:53 PM 41.0 °F 38.0 °F 25.0 °F 53% 30.44 in 10.0 mi ENE 4.6 mph - N/A   Clear